Weather reports worldwide

Advertisment
Pertusato, France (7770): temperature & dewpoint: 17.05.2019 14:00:00 - 23.05.2019 14:00:00 (CEST)Pertusato, France (7770): wind speed & gusts: 17.05.2019 14:00:00 - 23.05.2019 14:00:00 (CEST)Pertusato, France (7770): wind direction: 17.05.2019 14:00:00 - 23.05.2019 14:00:00 (CEST)Pertusato, France (7770): reduced air pressure: 17.05.2019 14:00:00 - 23.05.2019 14:00:00 (CEST)Pertusato, France (7770): visibility: 17.05.2019 14:00:00 - 23.05.2019 14:00:00 (CEST)Pertusato, France (7770): precipitation: 17.05.2019 14:00:00 - 23.05.2019 14:00:00 (CEST)
Date & Time tt [°C] td [°C] ff [km/h] ff [kn] fx [km/h] fx [kn] dd ppp [hPa] vv [km] rr [mm]
23.05.2019 14:00:00 - - - - - - - - - -
23.05.2019 13:00:00 18,0 14,5 14 8 32 17 W 1017,7 - 0,0
23.05.2019 12:00:00 17,7 14,4 10 6 39 21 W 1018,2 - 0,0
23.05.2019 11:00:00 16,5 14,3 16 8 36 20 WSW 1018,3 15 0,0
23.05.2019 10:00:00 16,4 14,6 16 9 31 17 W 1018,2 - 0,0
23.05.2019 09:00:00 15,8 14,5 22 12 34 18 W 1017,9 - 0,0
23.05.2019 08:00:00 15,3 14,3 23 13 37 20 W 1017,3 15 0,0
23.05.2019 07:00:00 15,1 13,8 29 15 44 24 W 1016,9 - 0,0
23.05.2019 06:00:00 14,7 13,6 30 16 46 25 W 1016,5 - 0,0
23.05.2019 05:00:00 14,9 13,8 23 13 48 26 W 1016,5 15 0,0
23.05.2019 04:00:00 14,8 13,5 13 7 41 22 W 1016,9 - 0,0
23.05.2019 03:00:00 14,6 13,3 29 16 37 20 W 1017,1 - 0,0
23.05.2019 02:00:00 14,6 13,3 25 13 36 19 W 1017,3 - 0,0
23.05.2019 01:00:00 14,9 13,4 29 16 40 22 W 1017,3 - 0,0
23.05.2019 00:00:00 15,1 13,3 27 15 46 25 W 1017,3 - 0,0
22.05.2019 23:00:00 15,1 13,0 27 14 48 26 W 1016,9 - 0,0
22.05.2019 22:00:00 15,2 13,0 31 17 53 29 W 1016,2 - 0,0
22.05.2019 21:00:00 15,3 13,3 34 18 54 29 W 1015,6 - 0,0
22.05.2019 20:00:00 15,6 13,1 29 15 55 30 W 1015,2 16 0,0
22.05.2019 19:00:00 16,3 13,6 32 17 52 28 W 1015,4 - 0,0
22.05.2019 18:00:00 16,6 14,2 35 19 63 34 W 1015,4 - 0,0
22.05.2019 17:00:00 16,9 14,4 26 14 51 27 W 1015,6 - 0,0
22.05.2019 16:00:00 17,2 14,8 19 10 53 29 W 1015,8 - 0,0
22.05.2019 15:00:00 17,3 14,8 16 9 41 22 W 1016,0 - 0,0
22.05.2019 14:00:00 17,7 15,0 18 10 39 21 W 1016,5 16 0,0
22.05.2019 13:00:00 17,4 14,5 14 8 36 20 W 1016,8 - 0,0
22.05.2019 12:00:00 16,8 14,1 15 8 51 28 WSW 1016,7 - 0,0
22.05.2019 11:00:00 16,1 13,4 24 13 54 29 WSW 1016,0 16 0,0
22.05.2019 10:00:00 15,6 13,4 25 13 54 29 WSW 1015,9 - 0,0
22.05.2019 09:00:00 15,1 13,5 20 11 55 30 W 1016,0 - 0,0
22.05.2019 08:00:00 15,2 13,2 20 11 54 29 W 1015,5 - 0,0
22.05.2019 07:00:00 14,8 13,2 19 10 54 29 W 1015,7 - 0,0
22.05.2019 06:00:00 14,7 13,2 18 10 48 26 W 1015,4 - 0,0
22.05.2019 05:00:00 14,6 13,3 16 8 44 24 W 1015,7 - 0,0
22.05.2019 04:00:00 14,6 13,3 21 11 40 21 W 1015,9 - 0,0
22.05.2019 03:00:00 14,6 13,6 16 9 45 25 W 1015,9 - 0,2
22.05.2019 02:00:00 14,8 14,0 15 8 44 24 W 1016,0 16 0,0
22.05.2019 01:00:00 14,8 14,2 19 11 46 25 W 1016,2 - 0,0
22.05.2019 00:00:00 14,7 14,1 26 14 39 21 W 1016,5 - 0,0
21.05.2019 23:00:00 14,8 14,0 31 17 42 23 W 1016,3 - 0,0
21.05.2019 22:00:00 14,8 14,0 30 16 47 26 W 1015,8 - 0,0
21.05.2019 21:00:00 15,0 14,0 37 20 54 29 W 1015,0 - 0,0
21.05.2019 20:00:00 15,3 13,8 35 19 64 34 W 1014,6 16 0,0
21.05.2019 19:00:00 15,8 13,8 26 14 63 34 W 1014,4 - 0,0
21.05.2019 18:00:00 16,0 13,8 31 17 67 36 W 1014,2 - 0,0
21.05.2019 17:00:00 16,2 13,9 33 18 68 37 W 1014,1 16 0,0
21.05.2019 16:00:00 16,3 13,8 20 11 58 31 W 1014,2 - 0,0
21.05.2019 15:00:00 16,3 13,8 27 15 55 30 W 1014,2 - 0,0
21.05.2019 14:00:00 16,4 14,1 31 17 55 30 W 1014,2 16 0,0
21.05.2019 13:00:00 16,3 14,0 30 16 64 35 W 1013,9 - 0,0
21.05.2019 12:00:00 16,1 13,8 31 17 73 39 W 1013,3 - 0,0
21.05.2019 11:00:00 15,8 13,6 43 23 66 35 W 1013,2 12 0,0
21.05.2019 10:00:00 15,2 13,7 43 23 66 35 W 1012,8 - 0,0
21.05.2019 09:00:00 15,1 13,6 37 20 67 36 W 1012,2 - 0,0
21.05.2019 08:00:00 15,1 13,1 37 20 80 43 W 1011,6 - 0,0
21.05.2019 07:00:00 14,9 13,3 27 14 75 41 W 1010,6 - 0,0
21.05.2019 06:00:00 14,7 13,4 27 15 76 41 W 1010,4 - 0,0
21.05.2019 05:00:00 14,7 13,2 29 15 79 43 W 1010,4 - 0,0
21.05.2019 04:00:00 14,6 12,8 28 15 79 42 W 1010,7 - 0,0
21.05.2019 03:00:00 14,6 12,6 28 15 77 41 W 1011,0 - 0,0
21.05.2019 02:00:00 14,8 12,7 31 17 77 42 W 1010,9 16 0,0
21.05.2019 01:00:00 15,0 13,0 25 14 64 35 W 1011,3 - 0,0
21.05.2019 00:00:00 15,1 13,0 23 12 61 33 W 1011,6 - 0,0
20.05.2019 23:00:00 15,0 12,7 21 11 63 34 W 1011,4 - 0,0
20.05.2019 22:00:00 14,9 12,8 28 15 82 45 W 1010,7 - 0,0
20.05.2019 21:00:00 14,8 12,7 30 16 80 43 W 1009,7 - 0,0
20.05.2019 20:00:00 14,8 12,8 29 16 86 46 W 1009,1 12 0,0
20.05.2019 19:00:00 14,9 12,8 30 16 87 47 W 1008,7 - 0,0
20.05.2019 18:00:00 15,1 12,8 30 16 84 45 W 1008,8 - 0,0
20.05.2019 17:00:00 15,0 12,3 44 24 90 49 W 1008,5 12 0,0
20.05.2019 16:00:00 14,6 12,8 54 29 82 44 W 1008,3 - 1,2
20.05.2019 15:00:00 14,6 13,3 41 22 96 52 W 1007,7 - 0,9
20.05.2019 14:00:00 13,3 12,7 40 21 52 28 W 1008,6 12 4,4
20.05.2019 13:00:00 14,0 13,0 21 12 61 33 W 1008,1 - 0,2
20.05.2019 12:00:00 14,0 12,7 18 10 74 40 WNW 1007,9 - 0,2
20.05.2019 11:00:00 14,3 12,0 16 9 55 30 W 1007,7 20 0,0
20.05.2019 10:00:00 14,6 11,0 20 11 52 28 WNW 1007,7 - 0,0
20.05.2019 09:00:00 14,5 11,6 16 9 46 25 WNW 1007,5 - 0,0
20.05.2019 08:00:00 13,8 11,8 15 8 37 20 W 1007,7 - 0,0
20.05.2019 07:00:00 13,7 10,9 20 11 35 19 W 1007,3 - 0,0
20.05.2019 06:00:00 13,1 10,3 23 12 39 21 W 1007,2 - 0,0
20.05.2019 05:00:00 13,1 10,3 27 14 37 20 W 1007,0 15 0,0
20.05.2019 04:00:00 13,0 10,4 24 13 38 20 W 1007,3 - 0,0
20.05.2019 03:00:00 12,9 10,6 19 11 27 14 W 1007,8 - 0,0
20.05.2019 02:00:00 13,1 10,8 18 10 27 14 W 1008,0 - 0,0
20.05.2019 01:00:00 13,5 10,8 19 10 38 20 W 1008,3 - 0,0
20.05.2019 00:00:00 14,0 10,8 26 14 45 24 W 1008,4 - 0,0
19.05.2019 23:00:00 14,2 10,4 33 18 51 28 W 1008,4 - 0,0
19.05.2019 22:00:00 14,2 10,6 35 19 53 28 W 1008,2 - 0,0
19.05.2019 21:00:00 14,3 11,3 36 19 58 32 W 1007,6 - 0,0
19.05.2019 20:00:00 14,5 10,7 41 22 63 34 W 1007,2 19 0,0
19.05.2019 19:00:00 14,9 11,3 34 18 69 37 W 1007,2 - 0,0
19.05.2019 18:00:00 15,2 11,0 42 23 69 37 W 1006,7 - 0,0
19.05.2019 17:00:00 15,3 10,5 47 26 82 45 W 1006,4 - 0,0
19.05.2019 16:00:00 15,3 11,5 34 18 72 39 W 1005,7 - 0,0
19.05.2019 15:00:00 15,4 11,2 35 19 75 41 W 1005,7 - 0,0
19.05.2019 14:00:00 15,6 10,8 22 12 69 38 W 1005,6 - 0,0
19.05.2019 13:00:00 14,9 11,5 33 18 67 36 W 1006,0 - 0,6
19.05.2019 12:00:00 15,2 10,8 23 12 67 36 W 1005,7 - 0,0
19.05.2019 11:00:00 14,9 10,7 20 11 61 33 WNW 1005,5 19 0,0
19.05.2019 10:00:00 15,2 10,6 37 20 61 33 W 1005,6 - 0,0
19.05.2019 09:00:00 14,9 11,1 36 20 61 33 W 1005,3 - 0,0
19.05.2019 08:00:00 14,4 11,2 39 21 56 31 W 1005,1 15 0,0
19.05.2019 07:00:00 14,1 10,3 41 22 64 35 W 1005,1 - 0,0
19.05.2019 06:00:00 14,1 10,9 44 24 63 34 W 1005,0 - 0,0
19.05.2019 05:00:00 14,1 11,1 45 24 61 33 W 1005,0 - 0,0
19.05.2019 04:00:00 14,0 10,6 44 24 64 35 W 1005,2 - 0,0
19.05.2019 03:00:00 13,9 11,4 43 23 68 37 W 1005,5 - 0,0
19.05.2019 02:00:00 14,1 11,4 45 25 61 33 W 1005,7 - 0,0
19.05.2019 01:00:00 14,0 11,2 42 23 60 32 W 1006,7 - 0,0
19.05.2019 00:00:00 14,3 11,8 44 24 59 32 W 1006,9 - 0,0
18.05.2019 23:00:00 14,2 11,2 33 18 56 30 WNW 1007,2 - 0,0
18.05.2019 22:00:00 14,2 11,5 35 19 59 32 WNW 1006,8 - 0,0
18.05.2019 21:00:00 14,3 12,7 39 21 56 30 W 1005,9 - 0,0
18.05.2019 20:00:00 14,6 12,3 38 20 60 32 W 1005,3 - 0,0
18.05.2019 19:00:00 15,0 13,4 41 22 62 33 W 1004,7 - 0,0
18.05.2019 18:00:00 15,0 13,5 43 23 62 33 W 1004,2 - 0,0
18.05.2019 17:00:00 15,1 13,3 45 24 71 39 W 1003,8 15 0,0
18.05.2019 16:00:00 15,3 13,0 47 26 61 33 W 1003,2 - 0,0
18.05.2019 15:00:00 15,7 12,6 41 22 61 33 W 1003,7 - 0,0
18.05.2019 14:00:00 15,8 13,3 22 12 71 38 W 1003,1 15 0,0
18.05.2019 13:00:00 15,1 13,0 25 13 69 37 W 1002,7 - 0,0
18.05.2019 12:00:00 15,0 13,4 22 12 69 37 W 1002,4 - 0,0
18.05.2019 11:00:00 15,1 13,6 18 10 55 30 W 1002,1 12 0,0
18.05.2019 10:00:00 14,6 13,6 22 12 53 29 W 1001,4 - 0,4
18.05.2019 09:00:00 15,4 14,1 9 5 40 21 NNW 1001,2 - 0,0
18.05.2019 08:00:00 15,0 13,0 10 6 38 20 WNW 1000,8 18 0,0
18.05.2019 07:00:00 14,8 12,5 14 8 31 17 WSW 1000,5 - 0,0
18.05.2019 06:00:00 14,2 11,7 6 4 22 12 SW 1000,4 - 0,0
18.05.2019 05:00:00 14,2 11,5 8 4 16 9 S 1000,7 - 0,0
18.05.2019 04:00:00 13,9 11,2 6 3 11 6 SSE 1001,1 - 0,0
18.05.2019 03:00:00 14,2 10,4 2 1 20 11 SSW 1001,6 - 0,0
18.05.2019 02:00:00 14,9 11,9 10 5 40 22 SW 1001,9 - 0,0
18.05.2019 01:00:00 15,0 11,9 19 11 46 25 WSW 1002,0 - 0,2
18.05.2019 00:00:00 14,7 13,2 6 4 37 20 W 1002,6 - 0,4
17.05.2019 23:00:00 14,8 13,5 24 13 37 20 ESE 1002,3 - 0,0
17.05.2019 22:00:00 14,6 13,3 23 12 36 19 E 1002,4 - 0,0
17.05.2019 21:00:00 14,5 13,4 22 12 42 23 E 1002,5 - 0,0
17.05.2019 20:00:00 14,6 13,6 28 15 51 27 E 1002,8 - 0,0
17.05.2019 19:00:00 14,9 13,1 31 17 53 29 E 1003,0 - 0,0
17.05.2019 18:00:00 15,1 12,8 32 17 56 30 ENE 1004,0 - 0,0
17.05.2019 17:00:00 15,2 12,5 34 19 59 32 ENE 1004,8 20 0,0
17.05.2019 16:00:00 16,2 12,2 35 19 63 34 ENE 1005,3 - 0,0
17.05.2019 15:00:00 16,8 11,7 39 21 66 36 E 1005,7 - 0,0
17.05.2019 14:00:00 17,1 11,6 39 21 63 34 ENE 1005,6 20 0,2

tt = temperature
td = dewpoint
ff = wind speed
fx = gusts
dd = wind direction
ppp = reduced air pressure
vv = visibility
rr = precipitation

Next stations